This is the latest recevied weather packets stored in our database for station/object NO9B. If no packets are shown the sender has not sent any weather packets the latest 1 day(s).
| Time | Temp. | Humidity | Pressure | Rain* | Wind** | Luminosity | Snow |
|---|---|---|---|---|---|---|---|
| 1778038191 | 8.89° C | 40% | 1011.6 hPa | 0 mm | - | 0 W/m² | - |
| 1778037889 | 8.89° C | 39% | 1011.7 hPa | 0 mm | - | 0 W/m² | - |
| 1778037585 | 8.89° C | 38% | 1011.8 hPa | 0 mm | - | 0 W/m² | - |
| 1778037283 | 8.89° C | 38% | 1011.6 hPa | 0 mm | - | 0 W/m² | - |
| 1778036980 | 8.89° C | 38% | 1011.6 hPa | 0 mm | - | 0 W/m² | - |
| 1778036678 | 8.89° C | 38% | 1011.6 hPa | 0 mm | - | 0 W/m² | - |
| 1778036374 | 9.44° C | 38% | 1011.5 hPa | 0 mm | - | 0 W/m² | - |
| 1778036071 | 9.44° C | 37% | 1011.6 hPa | 0 mm | - | 0 W/m² | - |
| 1778035768 | 9.44° C | 37% | 1011.7 hPa | 0 mm | - | 0 W/m² | - |
| 1778035465 | 9.44° C | 37% | 1011.4 hPa | 0 mm | - | 0 W/m² | - |
| 1778035161 | 9.44° C | 37% | 1011.5 hPa | 0 mm | - | 0 W/m² | - |
| 1778034858 | 9.44° C | 38% | 1011.3 hPa | 0 mm | - | 0 W/m² | - |
| 1778034252 | 9.44° C | 38% | 1011 hPa | 0 mm | - | 0 W/m² | - |
| 1778033950 | 9.44° C | 44% | 1011 hPa | 0 mm | - | 0 W/m² | - |
| 1778033344 | 9.44° C | 42% | 1010.7 hPa | 0 mm | - | 0 W/m² | - |
| 1778033042 | 9.44° C | 43% | 1010.7 hPa | 0 mm | - | 0 W/m² | - |
| 1778032739 | 10° C | 39% | 1010.7 hPa | 0 mm | - | 0 W/m² | - |
| 1778032133 | 10° C | 40% | 1010.6 hPa | 0 mm | - | 0 W/m² | - |
| 1778031830 | 10.56° C | 39% | 1010.4 hPa | 0 mm | - | 0 W/m² | - |
| 1778031224 | 10.56° C | 39% | 1010 hPa | 0 mm | - | 0 W/m² | - |
| 1778030920 | 10.56° C | 39% | 1009.8 hPa | 0 mm | - | 0 W/m² | - |
| 1778030011 | 11.11° C | 35% | 1009.9 hPa | 0 mm | - | 0 W/m² | - |
| 1778029709 | 11.11° C | 35% | 1009.7 hPa | 0 mm | - | 0 W/m² | - |
| 1778029103 | 11.67° C | 33% | 1009.9 hPa | 0 mm | - | 1 W/m² | - |
| 1778028496 | 11.67° C | 33% | 1009.5 hPa | 0 mm | - | 2 W/m² | - |
* Rain latest hour (hover to see other rain measurements)
** Current wind speed in m/s (hover to see current wind gust speed)